Погода в Ауце

Латвия     56°27′40″N   22°54′18″E
темп.,
°C
ветер,
м/с
пор.,
м/с
влажн.,
%
обл.,
%
осадки,
мм/ч
давл.,
гПа
погр.,
м
25 июля, вс
вс2500:00+12св227610 0.0 101837
03:00+11св127725 0.0 101811
06:00+11в11781 0.0 101911
09:00+18в22540 0.0 1019297
12:00+23вюв23410 0.0 10191154
15:00+26юв23350 0.0 10181730
18:00+25ююв33370 0.0 10181630
21:00+20вюв11635 0.0 101811
26 июля, пн
пн2600:00+15всв227512 0.0 101935
03:00+15вюв22765 0.0 101919
06:00+15вюв23745 0.0 101960
09:00+21вюв356794 0.0 1019335
12:00+26юв455032 0.0 10191138
15:00+28ююв4542100 0.0 10182369
18:00+28ююв454399 0.0 10172056
21:00+22юв236563 0.0 101756
27 июля, вт
вт2700:00+19вюв39705 0.0 1017150
03:00+17в37821 0.0 1017138
06:00+19в3106957 0.0 1016257
09:00+22вюв510598 0.0 1015463
12:00+22вюв51266100 0.0 1014701
15:00+19вюв51387100 0.3 1013758
18:00+19в51390100 0.6 1011582
21:00+20вюв51189100 1.2 1009431
28 июля, ср
ср2800:00+18ююз3899100 0.0 1009317
03:00+18юз499397 0.0 1009544
06:00+19юз4987100 0.0 1009683
09:00+21зюз597710 0.0 1009743
12:00+26зюз6748100 0.0 10091671
15:00+28зюз67374 0.0 10092267
18:00+26з57415 0.0 10091879
21:00+21з2368100 0.0 100948
29 июля, чт
чт2900:00+18зюз3780100 0.0 1009162
03:00+18зюз31081100 0.0 1009452
06:00+17зюз31087100 0.0 1008394
09:00+21з58690 0.0 1008935
12:00+23з585289 0.0 10081835
15:00+25з684193 0.0 10082105
18:00+24з68440 0.0 10081880
21:00+19з49630 0.0 1008742